Content
SEND FEEDBACK

Daily
Averages
Monthly
Summary
United States of America

MIDKIFF, TEXAS


Home > North America > United States > Texas
Elevation: 2700 feet     Latitude: 31 38N     Longitude: 101 50W

WEATHER
 
SELECT A DAY
Number of Records: 235,128;   Date Range: 10/26/04 - 8/12/14
 
SHARE

PRINT THIS DATA

[ ← Previous Day ]
WEATHER ALMANAC - FEBRUARY 13, 2013
[ Next Day → ]
[ °C ]   °F
Weather ElementAverageHighLow
Temperature45.5 °F59.2 °F (3:55 pm)32 °F (4:55 am)
Dewpoint21.6 °F31.5 °F (9:35 am)9 °F (6:15 pm)
Humidity48.3 %87 % (2:55 am)14 % (5:35 pm)
Barometer30.08 in30.15 in (9:15 am)29.99 in (5:35 pm)
Wind Speed7.3 mph13.8 mph (1:35 pm)
Wind Gust20.7 mph (3:35 pm)
Weather ElementAverage
Visibility10 mi
Wind DirectionWSW (234.1 °)

Weather ElementTotal
Precipitation---
Heating Degree Days19.4 (Base 65)
Averaged from 69 records on February 13, 2013
WEATHER CONDITIONS BREAKOUT
WIND DIRECTION BREAKOUT
WEATHER BY HOUR - FEBRUARY 13, 2013
[ °C ]   °F
Local TimeTemperatureDewpointHumidityBarometerVisibilityWind DirectionWind SpeedGust SpeedPrecipitationEventsConditions
12:35 AM34.7 °F29.7 °F82 %30.13 in10.0 miNW (320°)4.6 mphClear
12:55 AM34.3 °F29.7 °F83 %30.13 in10.0 miNW (310°)4.6 mphClear
1:15 AM34.2 °F29.7 °F84 %30.13 in10.0 miNW (310°)3.5 mphClear
1:35 AM33.4 °F29.3 °F85 %30.13 in10.0 miWNW (290°)3.5 mphClear
1:55 AM33.3 °F29.3 °F85 %30.14 in10.0 miWNW (300°)5.8 mphClear
2:15 AM33.1 °F29.1 °F85 %30.13 in10.0 miNW (310°)4.6 mphClear
2:35 AM32.4 °F28.6 °F86 %30.13 in10.0 miWNW (290°)4.6 mphClear
2:55 AM32.2 °F28.6 °F87 %30.13 in10.0 miNW (310°)4.6 mphClear
3:15 AM32.2 °F28.4 °F86 %30.13 in10.0 miNW (320°)5.8 mphClear
3:35 AM32.4 °F28.8 °F87 %30.12 in10.0 miNW (310°)3.5 mphClear
3:55 AM32.4 °F28.8 °F87 %30.12 in10.0 miCalmClear
4:15 AM32.9 °F29.3 °F87 %30.11 in10.0 miWest (270°)3.5 mphClear
4:35 AM32.5 °F28.8 °F86 %30.12 in10.0 miWest (260°)3.5 mphClear
4:55 AM32.0 °F28.4 °F87 %30.12 in10.0 miWSW (250°)5.8 mphClear
5:15 AM32.2 °F28.6 °F87 %30.12 in10.0 miWSW (250°)4.6 mphClear
5:35 AM32.9 °F28.8 °F85 %30.12 in10.0 miWSW (240°)5.8 mphClear
5:55 AM32.9 °F28.6 °F84 %30.12 in10.0 miWSW (250°)3.5 mphClear
6:15 AM32.5 °F28.2 °F84 %30.12 in10.0 miWSW (250°)5.8 mphClear
6:55 AM33.1 °F28.0 °F82 %30.13 in10.0 miWSW (240°)8.1 mphClear
7:15 AM33.1 °F28.2 °F82 %30.13 in10.0 miWSW (240°)9.2 mphClear
7:35 AM33.4 °F28.4 °F82 %30.13 in10.0 miWSW (240°)6.9 mphClear
7:55 AM33.4 °F28.4 °F82 %30.13 in10.0 miWSW (240°)6.9 mphClear
8:15 AM34.3 °F28.9 °F81 %30.14 in10.0 miWSW (250°)6.9 mphClear
8:35 AM36.0 °F29.7 °F78 %30.14 in10.0 miWSW (250°)8.1 mphClear
8:55 AM37.9 °F30.4 °F74 %30.14 in10.0 miWest (260°)8.1 mphClear
9:15 AM39.6 °F30.7 °F71 %30.15 in10.0 miWSW (250°)6.9 mphClear
9:35 AM41.7 °F31.5 °F67 %30.15 in10.0 miWSW (240°)9.2 mphClear
9:55 AM44.1 °F31.5 °F61 %30.15 in10.0 miWSW (250°)9.2 mphClear
10:15 AM46.6 °F31.3 °F55 %30.15 in10.0 miSW (230°)10.4 mphClear
10:35 AM47.8 °F30.2 °F50 %30.15 in10.0 miSW (230°)11.5 mphClear
10:55 AM49.1 °F29.8 °F47 %30.15 in10.0 miWSW (250°)11.5 mphClear
11:15 AM50.2 °F29.8 °F46 %30.14 in10.0 miWSW (250°)9.2 mphClear
11:35 AM51.3 °F29.1 °F43 %30.14 in10.0 miSW (230°)10.4 mphClear
11:55 AM52.9 °F27.1 °F37 %30.13 in10.0 miWSW (240°)10.4 mph16.1 mphClear
12:15 PM53.6 °F24.1 °F32 %30.12 in10.0 miSW (230°)10.4 mph16.1 mphClear
12:35 PM54.1 °F22.3 °F29 %30.11 in10.0 miSW (230°)11.5 mphClear
12:55 PM55.0 °F22.5 °F28 %30.10 in10.0 miSSW (210°)11.5 mphClear
1:15 PM55.8 °F22.1 °F27 %30.08 in10.0 miWest (260°)12.7 mph17.3 mphClear
1:35 PM56.3 °F20.3 °F25 %30.07 in10.0 miSW (230°)13.8 mph17.3 mphClear
1:55 PM57.0 °F20.1 °F24 %30.05 in10.0 miWSW (240°)12.7 mphClear
2:15 PM57.7 °F18.3 °F22 %30.04 in10.0 miSSW (200°)10.4 mph16.1 mphClear
2:35 PM57.9 °F16.3 °F20 %30.03 in10.0 miWSW (250°)8.1 mph16.1 mphClear
2:55 PM58.5 °F16.0 °F19 %30.02 in10.0 miSW (220°)9.2 mph18.4 mphClear
3:15 PM58.6 °F15.6 °F19 %30.01 in10.0 miSSW (210°)9.2 mphClear
3:35 PM59.0 °F14.5 °F18 %30.01 in10.0 miSW (220°)9.2 mph20.7 mphClear
3:55 PM59.2 °F13.1 °F16 %30.00 in10.0 miSW (230°)10.4 mph17.3 mphClear
4:15 PM59.2 °F12.2 °F16 %30.00 in10.0 miWSW (250°)8.1 mphClear
4:35 PM59.2 °F11.8 °F16 %30.00 in10.0 miSW (230°)9.2 mphClear
4:55 PM59.2 °F12.0 °F16 %30.00 in10.0 miSW (230°)10.4 mph17.3 mphClear
5:15 PM59.2 °F11.1 °F15 %30.00 in10.0 miWSW (240°)11.5 mphClear
5:35 PM58.8 °F9.9 °F14 %29.99 in10.0 miWSW (250°)9.2 mphClear
5:55 PM58.3 °F9.1 °F14 %29.99 in10.0 miSW (220°)10.4 mphClear
6:15 PM57.7 °F9.0 °F14 %29.99 in10.0 miSW (220°)8.1 mphClear
6:35 PM56.7 °F9.7 °F15 %29.99 in10.0 miSSW (200°)4.6 mphClear
6:55 PM54.9 °F11.5 °F18 %29.99 in10.0 miSouth (180°)4.6 mphClear
7:15 PM52.9 °F12.6 °F20 %29.99 in10.0 miSouth (170°)5.8 mphClear
7:35 PM50.5 °F14.4 °F24 %30.00 in10.0 miSouth (170°)5.8 mphClear
7:55 PM49.6 °F14.0 °F24 %30.00 in10.0 miSouth (170°)5.8 mphClear
8:15 PM49.3 °F13.3 °F24 %30.01 in10.0 miSouth (170°)4.6 mphClear
8:35 PM48.9 °F12.9 °F24 %30.01 in10.0 miSouth (180°)5.8 mphClear
8:55 PM48.4 °F12.9 °F24 %30.02 in10.0 miSouth (190°)3.5 mphClear
9:15 PM48.0 °F12.6 °F24 %30.02 in10.0 miSouth (190°)5.8 mphClear
9:35 PM47.1 °F13.1 °F25 %30.01 in10.0 miSouth (190°)6.9 mphClear
9:55 PM47.8 °F12.2 °F24 %30.02 in10.0 miSSW (200°)5.8 mphClear
10:15 PM47.1 °F12.9 °F25 %30.02 in10.0 miSouth (190°)8.1 mphClear
10:35 PM46.4 °F12.9 °F26 %30.02 in10.0 miSSW (210°)5.8 mphClear
10:55 PM46.9 °F11.5 °F24 %30.03 in10.0 miSW (220°)4.6 mphClear
11:15 PM46.6 °F10.9 °F24 %30.03 in10.0 miSSW (210°)5.8 mphClear
11:55 PM44.8 °F11.1 °F26 %30.02 in10.0 miSSW (210°)5.8 mphClear
Hourly data recorded from KMDD, located miles away from Midkiff, Texas







STORIES FROM OUR PARTNERS